Location: Gu�tanj
(46.5431°N, 14.9692°E)
Time: 19:42:20
(UTC+00:00)

Cosmos 1844 Rocket - Pass Details

Date: 03 March 2021
Orbit: 826 x 843 km, 71.0° (Epoch: 20 April)

Event Time Altitude Azimuth Distance (km) Brightness Sun altitude
Rises 18:22:57 0° 332° (NNW) 3,375 6.4 -16.9°
Reaches altitude 10° 18:25:24 10° 331° (NNW) 2,437 5.6 -17.3°
Maximum altitude 18:30:58 79° 247° (WSW) 845 2.7 -18.3°
Enters shadow 18:36:18 11° 160° (SSE) 2,336 4.7 -19.2°
